Change the Weather History Date:

Monday, September 30, 2013

  Actual Average (KSAT) Record (KSAT)
Temperature  
Mean Temperature 69 °F 76 °F  
Max Temperature 87 °F 86 °F 95 °F (1977)
Min Temperature 51 °F 65 °F 46 °F (1890)
Degree Days  
Heating Degree Days 0 0  
Month to date heating degree days 0  
Since 1 July heating degree days 2  
Cooling Degree Days 4 11  
Month to date cooling degree days 443  
Year to date cooling degree days 2834  
Growing Degree Days 19 (Base 50)    
Moisture  
Dew Point 54 °F    
Average Humidity 64    
Maximum Humidity 96    
Minimum Humidity 28    
Precipitation  
Precipitation 0.00 in 0.10 in 0.99 in (1902)
Month to date precipitation 3.03  
Year to date precipitation 23.97  
Snow  
Snow 0.00 in - - ()
Month to date snowfall  
Since 1 July snowfall  
Since 1 September snowfall  
Snow Depth -    
Sea Level Pressure  
Sea Level Pressure 29.92 in    
Wind  
Wind Speed 2 mph (South)    
Max Wind Speed 9 mph    
Max Gust Speed 16 mph    
Visibility 10 miles    
Events      
T = Trace of Precipitation, MM = Missing Value Source: NWS Daily Summary

Daily Weather History Graph

Daily Weather History Graph

Search for Another Location

Airport or City:

Trip Planner

Search our weather history database for the weather conditions in past years. The results will help you decide how hot, cold, wet, or windy it might be!

Date:

Astronomy

Sep. 30, 2013 Rise Set
Actual Time 7:28 AM CDT 7:21 PM CDT
Civil Twilight 7:04 AM CDT 7:45 PM CDT
Nautical Twilight 6:36 AM CDT 8:13 PM CDT
Astronomical Twilight 6:08 AM CDT 8:41 PM CDT
Moon 3:23 AM CDT (9/30) 4:39 PM CDT (9/30)
Length of Visible Light 12h 41m
Length of Day
11h 53m
Waning Crescent, 19% of the Moon is Illuminated
Sep 30
Waning Crescent
Oct 4
New
Oct 11
First Quarter
Oct 18
Full
Oct 26
Last Quarter

Hourly Weather History & Observations

Time (CDT) Temp. Heat Index Dew Point Humidity Pressure Visibility Wind Dir Wind Speed Gust Speed Precip Events Conditions
12:15 AM 59.0 °F - 56.5 °F 91% 30.02 in 10.0 mi Calm Calm - N/A   Clear
12:35 AM 58.3 °F - 55.8 °F 91% 30.01 in 10.0 mi Calm Calm - N/A   Clear
12:55 AM 58.3 °F - 55.9 °F 92% 30.01 in 10.0 mi Calm Calm - N/A   Clear
1:15 AM 57.6 °F - 55.6 °F 93% 30.00 in 10.0 mi Calm Calm - N/A   Clear
1:35 AM 57.6 °F - 55.6 °F 93% 29.99 in 10.0 mi Calm Calm - N/A   Clear
1:55 AM 57.2 °F - 55.0 °F 92% 29.99 in 10.0 mi NW 3.5 mph - N/A   Clear
2:15 AM 57.0 °F - 55.0 °F 93% 29.99 in 10.0 mi West 3.5 mph - N/A   Clear
2:35 AM 56.7 °F - 54.9 °F 94% 29.98 in 10.0 mi WNW 3.5 mph - N/A   Clear
2:55 AM 56.5 °F - 54.9 °F 94% 29.98 in 10.0 mi Calm Calm - N/A   Clear
3:15 AM 55.8 °F - 54.1 °F 94% 29.97 in 10.0 mi Calm Calm - N/A   Clear
3:35 AM 55.0 °F - 53.8 °F 96% 29.96 in 10.0 mi Calm Calm - N/A   Clear
3:55 AM 54.7 °F - 53.6 °F 96% 29.95 in 10.0 mi Calm Calm - N/A   Clear
4:15 AM 54.1 °F - 52.9 °F 95% 29.95 in 10.0 mi Calm Calm - N/A   Clear
4:35 AM 53.6 °F - 52.2 °F 95% 29.95 in 10.0 mi West 3.5 mph - N/A   Clear
4:55 AM 54.0 °F - 52.7 °F 95% 29.94 in 10.0 mi Calm Calm - N/A   Clear
5:15 AM 53.6 °F - 52.2 °F 95% 29.94 in 10.0 mi Calm Calm - N/A   Clear
5:35 AM 53.2 °F - 52.0 °F 95% 29.94 in 10.0 mi Calm Calm - N/A   Clear
5:55 AM 53.1 °F - 51.8 °F 95% 29.94 in 10.0 mi Calm Calm - N/A   Clear
6:15 AM 52.2 °F - 51.1 °F 96% 29.94 in 10.0 mi Calm Calm - N/A   Clear
6:35 AM 52.2 °F - 51.1 °F 96% 29.94 in 10.0 mi West 3.5 mph - N/A   Clear
6:55 AM 52.2 °F - 50.9 °F 95% 29.95 in 10.0 mi Calm Calm - N/A   Clear
7:15 AM 51.8 °F - 50.7 °F 96% 29.95 in 10.0 mi Calm Calm - N/A   Clear
7:35 AM 51.8 °F - 50.4 °F 95% 29.95 in 10.0 mi Calm Calm - N/A   Clear
7:55 AM 51.4 °F - 50.2 °F 95% 29.96 in 10.0 mi Calm Calm - N/A   Clear
8:15 AM 53.1 °F - 51.8 °F 95% 29.96 in 10.0 mi Calm Calm - N/A   Clear
8:35 AM 55.2 °F - 53.6 °F 94% 29.96 in 10.0 mi Calm Calm - N/A   Clear
8:55 AM 57.4 °F - 55.4 °F 93% 29.96 in 10.0 mi Calm Calm - N/A   Clear
9:15 AM 60.6 °F - 57.6 °F 90% 29.97 in 10.0 mi Calm Calm - N/A   Clear
9:35 AM 62.8 °F - 58.8 °F 87% 29.96 in 10.0 mi Calm Calm - N/A   Clear
9:55 AM 65.3 °F - 60.1 °F 83% 29.96 in 10.0 mi Calm Calm - N/A   Clear
10:15 AM 68.2 °F - 61.2 °F 78% 29.96 in 10.0 mi Calm Calm - N/A   Clear
10:35 AM 71.2 °F - 61.9 °F 72% 29.96 in 10.0 mi Calm Calm - N/A   Clear
10:55 AM 73.4 °F - 61.9 °F 67% 29.95 in 10.0 mi WSW 3.5 mph - N/A   Clear
11:15 AM 76.3 °F - 61.5 °F 60% 29.95 in 10.0 mi SSW 4.6 mph - N/A   Clear
11:35 AM 78.3 °F - 60.1 °F 53% 29.94 in 10.0 mi SSW 3.5 mph - N/A   Clear
11:55 AM 80.2 °F 80.4 °F 55.6 °F 43% 29.94 in 10.0 mi South 3.5 mph - N/A   Clear
12:15 PM 81.1 °F 80.6 °F 53.6 °F 38% 29.94 in 10.0 mi South 3.5 mph - N/A   Clear
12:35 PM 82.0 °F - 50.2 °F 33% 29.93 in 10.0 mi Calm Calm - N/A   Clear
12:55 PM 83.5 °F - 49.1 °F 30% 29.92 in 10.0 mi SSW 9.2 mph - N/A   Clear
1:15 PM 84.0 °F - 47.7 °F 28% 29.91 in 10.0 mi SW 4.6 mph - N/A   Clear
1:35 PM 84.9 °F - 50.0 °F 30% 29.90 in 10.0 mi WSW 5.8 mph - N/A   Clear
1:55 PM 84.9 °F - 48.9 °F 29% 29.89 in 10.0 mi SW 8.1 mph - N/A   Clear
2:15 PM 85.8 °F - 49.6 °F 29% 29.88 in 10.0 mi SSE 3.5 mph - N/A   Clear
2:35 PM 86.4 °F - 49.8 °F 28% 29.88 in 10.0 mi WSW 5.8 mph - N/A   Clear
2:55 PM 86.0 °F - 49.6 °F 28% 29.87 in 10.0 mi South 3.5 mph - N/A   Clear
3:15 PM 86.2 °F 84.4 °F 54.0 °F 33% 29.87 in 10.0 mi SSW 9.2 mph - N/A   Clear
3:35 PM 86.9 °F - 51.3 °F 29% 29.86 in 10.0 mi Calm Calm - N/A   Clear
3:55 PM 87.6 °F - 51.8 °F 29% 29.85 in 10.0 mi South 9.2 mph - N/A   Clear
4:15 PM 87.4 °F 85.7 °F 54.7 °F 33% 29.85 in 10.0 mi South 8.1 mph - N/A   Clear
4:35 PM 87.1 °F 85.1 °F 54.1 °F 32% 29.85 in 10.0 mi SE 3.5 mph - N/A   Clear
4:55 PM 87.1 °F 84.9 °F 53.1 °F 31% 29.85 in 10.0 mi SSE 6.9 mph - N/A   Clear
5:15 PM 86.7 °F - 52.7 °F 31% 29.85 in 10.0 mi SSE 8.1 mph 16.1 mph N/A   Clear
5:35 PM 86.4 °F - 52.3 °F 31% 29.85 in 10.0 mi SSE 8.1 mph - N/A   Clear
5:55 PM 86.0 °F - 52.0 °F 31% 29.85 in 10.0 mi South 6.9 mph - N/A   Clear
6:15 PM 85.5 °F - 51.6 °F 31% 29.85 in 10.0 mi South 8.1 mph - N/A   Clear
6:35 PM 84.6 °F - 52.3 °F 33% 29.85 in 10.0 mi South 6.9 mph - N/A   Clear
6:55 PM 83.5 °F 82.2 °F 53.8 °F 36% 29.85 in 10.0 mi SSE 5.8 mph - N/A   Clear
7:15 PM 81.7 °F 81.1 °F 54.5 °F 39% 29.86 in 10.0 mi SSE 6.9 mph - N/A   Clear
7:35 PM 79.9 °F - 55.0 °F 42% 29.87 in 10.0 mi SSE 4.6 mph - N/A   Clear
7:55 PM 78.4 °F - 55.6 °F 45% 29.87 in 10.0 mi SSE 3.5 mph - N/A   Clear
8:15 PM 77.5 °F - 56.1 °F 47% 29.87 in 10.0 mi Calm Calm - N/A   Clear
8:35 PM 76.3 °F - 56.7 °F 51% 29.88 in 5.0 mi Calm Calm - N/A   Haze
8:55 PM 76.1 °F - 57.2 °F 52% 29.88 in 10.0 mi Calm Calm - N/A   Clear
9:15 PM 76.1 °F - 57.2 °F 52% 29.88 in 10.0 mi Calm Calm - N/A   Clear
9:35 PM 74.7 °F - 57.4 °F 55% 29.90 in 10.0 mi East 4.6 mph - N/A   Clear
9:55 PM 75.0 °F - 57.4 °F 54% 29.90 in 10.0 mi ESE 3.5 mph - N/A   Clear
10:15 PM 73.9 °F - 57.4 °F 56% 29.90 in 10.0 mi ESE 3.5 mph - N/A   Clear
10:35 PM 73.0 °F - 57.6 °F 58% 29.91 in 10.0 mi SSE 3.5 mph - N/A   Clear
10:55 PM 72.7 °F - 57.6 °F 59% 29.91 in 10.0 mi South 4.6 mph - N/A   Clear
11:15 PM 72.9 °F - 57.6 °F 59% 29.91 in 10.0 mi Calm Calm - N/A   Clear
11:35 PM 72.0 °F - 57.2 °F 60% 29.91 in 10.0 mi Calm Calm - N/A   Clear
11:55 PM 68.4 °F - 57.2 °F 67% 29.91 in 10.0 mi Calm Calm - N/A   Clear